Weather in Nanchong

China     30°46′47″N   106°04′55″E
temp.,
°C
wind,
m/s
gust,
m/s
humid.,
%
clouds,
%
prec.,
mm/h
press.,
hPa
HPBL,
m
23 april, fri
fri2323:00+22n2475100 0.2 1004137
02:00+20n2588100 2.1 1003283
05:00+19n2493100 1.1 1002232
08:00+19nnw3494100 2.7 1003237
11:00+20nnw0190100 0.8 1005267
14:00+21ese118570 0.9 1003337
17:00+21e338936 0.1 1001279
20:00+20ne4794100 0.1 1003288
24 april, sat
sat2423:00+19n4793100 0.4 1004299
02:00+18nne5993100 5.2 1004422
05:00+17nne51092100 4.3 1005406
08:00+16nne61187100 5.4 1009494
11:00+17nne61182100 0.0 1011504
14:00+17ne7127799 0.0 1011596
17:00+18ne6107475 0.0 1011580
20:00+16ne4117781 0.0 1014444
25 april, sun
sun2523:00+16ne41076100 0.0 1015358
02:00+16nne3877100 0.0 1014312
05:00+15n4978100 0.3 1014338
08:00+14nne4984100 1.4 1015383
11:00+14ne4789100 1.4 1016346
14:00+14ne5891100 2.4 1016400
17:00+14ne5791100 0.9 1014365
20:00+13nne6993100 2.4 1018448
26 april, mon
mon2623:00+13e41091100 0.9 1019308
02:00+13nnw1193100 0.9 102024
05:00+13nw1193100 0.0 101924
08:00+14e1287100 0.0 1019177
11:00+18e2268100 0.0 1018723
14:00+22e235693 0.0 10151444
17:00+22ese445691 0.0 10121266
20:00+19se1171100 0.0 101411
27 april, tue
tue2723:00+18s1178100 0.0 101811
02:00+17s1181100 0.0 101711
05:00+17nne1183100 0.0 101711
08:00+18n1178100 0.0 1018152
11:00+22ene2260100 0.0 1018991
14:00+24ene2252100 0.1 10151586
17:00+25e2348100 0.0 10121685
20:00+22ene2363100 0.0 101544